Overview Statistics Trail Chart Weather Telemetry Raw packets
 

This is the latest recevied weather packets stored in our database for station/object MeshWX-2. If no packets are shown the sender has not sent any weather packets the latest 10 day(s).

<< 24 25 26 27 28 29 30 >>
Time Temp. Humidity Pressure Rain* Wind** Luminosity Snow
1787932524 17.78° C 50% 885.8 hPa - - - -
1787932510 17.78° C 50% 885.8 hPa - - - -
1787932497 17.78° C 50% 885.8 hPa - - - -
1787930364 18.33° C 49% 885.8 hPa - - - -
1787930349 18.33° C 49% 885.8 hPa - - - -
1787930337 18.33° C 49% 885.8 hPa - - - -
1787928323 17.22° C 50% 885.8 hPa - - - -
1787928309 17.22° C 50% 885.8 hPa - - - -
1787928296 17.22° C 50% 885.8 hPa - - - -
1787926343 17.78° C 50% 885.7 hPa - - - -
1787926329 17.78° C 50% 885.7 hPa - - - -
1787926316 17.78° C 50% 885.7 hPa - - - -
1787924363 18.89° C 49% 885.9 hPa - - - -
1787924348 18.89° C 49% 885.9 hPa - - - -
1787924335 18.89° C 49% 885.9 hPa - - - -
1787922382 19.44° C 50% 886.1 hPa - - - -
1787922368 19.44° C 50% 886.1 hPa - - - -
1787922355 19.44° C 50% 886.1 hPa - - - -
1787920282 20.56° C 50% 886.1 hPa - - - -
1787920267 20.56° C 50% 886.1 hPa - - - -
1787920254 20.56° C 50% 886.1 hPa - - - -
1787918182 21.11° C 49% 886.2 hPa - - - -
1787918167 21.11° C 49% 886.2 hPa - - - -
1787918154 21.11° C 49% 886.2 hPa - - - -
1787916081 21.67° C 49% 886 hPa - - - -

* Rain since midnight (hover to see other rain measurements)
** Current wind speed in m/s (hover to see current wind gust speed)